#timestamp,LO_Frequency,Hit 
1505188815.2,286046975.7,N
1505188835.0,286046975.1,N
1505188835.9,286046975.1,N
1505188855.8,286046974.4,N
1505188875.6,286046977.6,N
1505188895.4,286046980.8,N
1505188915.3,286046981.7,N
1505188935.1,286046980.1,P
1505188955.8,286047004.4,N
1505188975.7,286047000.4,N
1505188995.5,286046997.4,N
1505189015.3,286046990.6,N
1505189035.2,286046993.1,N
1505189055.9,286046995.8,N
1505189075.7,286046994.3,N
1505189095.6,286046993.2,N
1505189115.4,286046993.1,N
1505189135.2,286046994.0,N
1505189155.0,286046994.7,N
1505189155.9,286046994.7,N
1505189175.8,286046991.8,N
1505189195.6,286046992.6,N
1505189215.4,286046990.6,N
1505189235.3,286046993.9,N
1505189255.1,286046995.8,N
1505189275.8,286047000.3,N
1505189295.7,286046997.6,N
1505189315.5,286046994.0,N
1505189335.3,286046994.7,N
1505189355.2,286046992.8,N
1505189375.9,286046987.3,N
1505189395.7,286046989.9,N
1505189415.5,286046994.5,N
1505189435.4,286046997.5,N
1505189455.2,286046999.8,N
1505189475.0,286047001.0,N
1505189475.9,286047001.0,N
1505189495.8,286047005.3,N
1505189515.6,286047012.3,N
1505189535.4,286047010.2,N
1505189555.3,286047007.8,N
1505189575.1,286047010.3,N
1505189576.0,286047010.3,N
1505189595.8,286047008.2,N
1505189615.7,286047011.4,N
1505189635.5,286047013.3,N
1505189655.3,286047015.7,N
1505189675.2,286047018.3,N
1505189695.9,286047014.2,N
1505189715.7,286047016.6,N
1505189735.6,286047017.8,N
1505189755.4,286047022.8,N
1505189775.2,286047024.5,N
1505189795.0,286047022.1,N
1505189795.9,286047022.1,N
1505189815.8,286047027.7,N
1505189835.6,286047028.4,N
1505189855.4,286047024.1,N
1505189875.3,286047023.7,N
1505189895.1,286047025.6,N
1505189915.8,286047026.5,N
1505189935.7,286047022.6,N
1505189955.5,286047021.1,N
1505189975.3,286047020.3,N
1505189995.2,286047017.7,N
1505190015.9,286047016.2,N
1505190035.7,286047020.1,N
1505190055.6,286047020.6,P
1505190075.4,286047006.0,P
1505190095.2,286047004.8,N
1505190115.1,286047007.1,N
1505190116.0,286047007.1,N
1505190135.8,286047007.3,N
1505190155.6,286047006.1,N
1505190175.5,286047003.1,N
1505190195.3,286047003.3,N
1505190215.1,286047007.4,N
1505190235.8,286047007.5,N
1505190255.7,286047005.3,N
1505190275.5,286047007.2,N
1505190295.3,286047004.6,N
1505190315.2,286047006.4,N
1505190335.9,286047004.0,N
1505190355.7,286046999.5,N
1505190375.6,286046991.7,N
1505190395.4,286046995.9,N
1505190415.2,286046997.3,N
1505190435.1,286046995.1,N
1505190436.0,286046995.1,N
1505190455.8,286047000.6,N
1505190475.6,286046996.5,N
1505190495.5,286046996.4,N
1505190515.3,286046993.7,N
1505190535.1,286046993.2,N
1505190555.8,286046987.1,N
1505190575.7,286046988.4,N
1505190595.5,286046985.4,N
1505190615.3,286046985.2,N
1505190635.2,286046982.8,N
1505190655.0,286046985.6,N
1505190655.9,286046985.6,N
1505190675.7,286046984.5,N
1505190695.6,286046986.6,N
1505190715.4,286046982.6,N
1505190735.2,286046980.0,N
1505190755.1,286046979.9,N
1505190756.0,286046979.9,N
1505190775.8,286046981.9,N
1505190795.6,286046983.9,N
1505190815.5,286046985.4,N
1505190835.3,286046986.3,N
1505190855.1,286046986.3,N
1505190875.9,286046987.6,N
1505190895.7,286046987.0,N
1505190915.5,286046986.4,N
1505190935.4,286046980.6,P
1505190955.2,286046989.1,N
1505190975.0,286046990.7,N
1505190975.9,286046990.7,N
1505190995.8,286046992.9,N
1505191015.6,286046988.6,N
1505191035.4,286046993.4,N
1505191055.2,286046992.7,N
1505191075.1,286046988.6,P
1505191076.0,286046988.6,P
1505191095.8,286047002.8,P
1505191115.7,286047001.9,N
1505191135.5,286046999.8,N
1505191155.3,286046998.3,N
1505191175.2,286046997.0,N
1505191195.9,286046993.3,N
1505191215.7,286046998.0,N
1505191235.5,286046997.5,N
1505191255.4,286046998.3,N
1505191275.2,286047000.4,N
1505191295.0,286047002.6,N
1505191295.9,286047002.6,N
1505191315.8,286046999.7,N
1505191335.6,286046999.5,N
1505191355.4,286046998.7,N
1505191375.3,286047003.9,N
1505191395.1,286047004.2,N
1505191396.0,286047004.2,N
1505191415.8,286047000.5,N
1505191435.7,286047003.1,N
1505191455.5,286047008.1,N
1505191475.3,286047010.8,N
1505191495.2,286047009.7,N
1505191515.9,286047009.9,N
1505191535.7,286047013.9,N
1505191555.5,286047015.0,N
1505191575.4,286047015.4,N
1505191595.2,286047016.8,N
1505191615.0,286047014.1,N
1505191615.9,286047014.1,N
1505191635.8,286047016.6,N
1505191655.6,286047016.2,N
1505191675.4,286047016.3,N
1505191695.3,286047023.1,P
1505191715.1,286047018.2,N
1505191735.8,286047018.3,N
1505191755.7,286047015.1,N
1505191775.5,286047014.5,N
1505191795.3,286047018.5,P
1505191815.2,286047005.5,P
1505191835.0,286047003.4,N
1505191835.9,286047003.4,N
1505191855.7,286047005.5,N
1505191875.6,286047005.7,N
1505191895.4,286047004.6,N
1505191915.2,286047009.2,N
1505191935.1,286047007.7,N
1505191936.0,286047007.7,N
1505191955.8,286047008.6,N
1505191975.6,286047008.5,N
1505191995.5,286047006.7,N
1505192015.3,286047010.3,N
1505192035.1,286047010.4,N
1505192055.9,286047012.2,P
1505192075.7,286047005.5,N
1505192095.5,286047007.5,N
1505192115.4,286047009.2,P
1505192135.2,286046998.5,P
1505192155.0,286046997.3,N
1505192155.9,286046997.3,N
1505192175.8,286046993.7,N
1505192195.6,286046992.5,N
1505192215.4,286046990.1,N
1505192235.3,286046991.9,N
1505192255.1,286046990.5,N
1505192256.0,286046990.5,N
1505192275.8,286046990.3,N
1505192295.7,286046992.4,N
1505192315.5,286046991.3,N
1505192335.3,286046982.7,N
1505192355.2,286046982.0,N
1505192375.9,286046976.6,P
1505192395.7,286046977.4,N
